CW0506 Weather Reports


Display with metric or nautical units.
time (UTC)temp
F
wind
direction
speed
MPH
gust
MPH
rain 1hr
in
rain 24hr
in
rain mn
in
humidity
%
barometer
mb
20260504002220 46 146 2.0 2.0 0.00 0.00 0.00 56 1011.5
20260504001718 47 130 1.0 3.0 0.00 0.00 0.00 55 1010.9
20260504001215 47 148 0.0 3.0 0.00 0.00 0.00 54 1010.9
20260504000711 48 147 2.0 3.0 0.00 0.00 0.00 53 1011.0
20260504000208 49 150 1.0 2.0 0.00 0.00 0.00 50 1010.9
20260503235707 49 161 2.0 3.0 0.00 0.00 0.00 51 1010.9
20260503235203 50 129 1.0 2.0 0.00 0.00 0.00 47 1010.5
20260503234701 51 165 1.0 2.0 0.00 0.00 0.00 45 1010.6
20260503234159 52 145 1.0 3.0 0.00 0.00 0.00 43 1010.6
20260503233655 53 34 0.0 5.0 0.00 0.00 0.00 39 1010.5
20260503233151 53 204 0.0 3.0 0.00 0.00 0.00 40 1010.5
20260503232648 53 73 0.0 3.0 0.00 0.00 0.00 39 1010.4
20260503232146 54 101 3.0 4.0 0.00 0.00 0.00 38 1010.6
20260503231644 54 216 2.0 4.0 0.00 0.00 0.00 39 1010.4
20260503231140 54 188 3.0 3.0 0.00 0.00 0.00 38 1010.5
20260503230637 54 203 3.0 4.0 0.00 0.00 0.00 38 1010.4
20260503230134 54 91 4.0 7.0 0.00 0.00 0.00 38 1010.5
20260503225631 55 164 4.0 7.0 0.00 0.00 0.00 37 1010.4
20260503225131 56 180 5.0 7.0 0.00 0.00 0.00 36 1010.3
20260503224629 55 11 3.0 7.0 0.00 0.00 0.00 38 1010.5
20260503224126 55 118 2.0 6.0 0.00 0.00 0.00 37 1010.3
20260503223624 55 216 1.0 3.0 0.00 0.00 0.00 38 1010.4
20260503223120 55 102 2.0 7.0 0.00 0.00 0.00 36 1010.3
20260503222618 55 119 2.0 7.0 0.00 0.00 0.00 37 1010.3
20260503222115 55 86 2.0 6.0 0.00 0.00 0.00 37 1010.4
20260503221614 55 81 3.0 5.0 0.00 0.00 0.00 37 1010.2
20260503221111 55 91 3.0 7.0 0.00 0.00 0.00 36 1010.2
20260503220608 55 62 2.0 12.0 0.00 0.00 0.00 37 1010.0
20260503220104 55 22 7.0 11.0 0.00 0.00 0.00 38 1010.3
20260503215601 55 112 2.0 7.0 0.00 0.00 0.00 38 1010.3
20260503215058 54 189 3.0 10.0 0.00 0.00 0.00 40 1010.3
20260503214556 54 219 3.0 10.0 0.00 0.00 0.00 39 1010.4
20260503214052 54 235 0.0 5.0 0.00 0.00 0.00 39 1010.3
20260503213551 55 83 3.0 10.0 0.00 0.00 0.00 40 1010.3
20260503213047 54 165 5.0 10.0 0.00 0.00 0.00 38 1010.2
20260503212545 54 149 0.0 4.0 0.00 0.00 0.00 40 1010.5
20260503212042 55 126 3.0 10.0 0.00 0.00 0.00 39 1010.2
20260503211539 54 38 11.0 17.0 0.00 0.00 0.00 37 1010.5
20260503211034 55 304 7.0 7.0 0.00 0.00 0.00 39 1010.4
20260503210531 55 220 3.0 5.0 0.00 0.00 0.00 39 1010.3
20260503210027 55 346 2.0 6.0 0.00 0.00 0.00 40 1010.3
20260503205524 55 301 3.0 8.0 0.00 0.00 0.00 38 1010.2
20260503205020 55 63 6.0 11.0 0.00 0.00 0.00 37 1010.2
20260503204517 55 32 8.0 28.0 0.00 0.00 0.00 37 1010.1
20260503204014 56 34 4.0 8.0 0.00 0.00 0.00 38 1010.3
20260503203512 56 330 6.0 9.0 0.00 0.00 0.00 36 1010.0
20260503203009 54 218 3.0 17.0 0.00 0.00 0.00 37 1010.6
20260503202506 55 20 7.0 13.0 0.00 0.00 0.00 39 1010.2
20260503202004 55 47 5.0 12.0 0.00 0.00 0.00 38 1010.3
20260503201502 55 70 5.0 13.0 0.00 0.00 0.00 39 1010.3
20260503200959 55 342 12.0 15.0 0.00 0.00 0.00 37 1010.3
20260503200455 55 116 8.0 15.0 0.00 0.00 0.00 38 1010.3
20260503195952 55 14 11.0 17.0 0.00 0.00 0.00 37 1010.4
20260503195449 55 25 6.0 12.0 0.00 0.00 0.00 40 1010.2
20260503194945 55 46 3.0 17.0 0.00 0.00 0.00 38 1010.6
20260503194443 55 76 2.0 17.0 0.00 0.00 0.00 38 1010.1
20260503193938 53 142 2.0 16.0 0.00 0.00 0.00 39 1010.3
20260503193434 55 18 11.0 23.0 0.00 0.00 0.00 37 1010.4
20260503192929 55 8 6.0 15.0 0.00 0.00 0.00 40 1010.2
20260503192426 55 11 6.0 11.0 0.00 0.00 0.00 37 1010.3
20260503191922 55 160 3.0 15.0 0.00 0.00 0.00 41 1010.2
20260503191420 57 207 5.0 13.0 0.00 0.00 0.00 37 1010.4
20260503190916 54 12 3.0 13.0 0.00 0.00 0.00 39 1010.2
20260503190413 54 107 13.0 14.0 0.00 0.00 0.00 39 1009.9
20260503185910 53 136 6.0 12.0 0.00 0.00 0.00 45 1010.2
20260503185407 53 38 1.0 7.0 0.00 0.00 0.00 39 1010.1
20260503184905 55 179 8.0 11.0 0.00 0.00 0.00 39 1010.5
20260503184403 54 257 4.0 17.0 0.00 0.00 0.00 42 1010.2
20260503183859 54 30 5.0 18.0 0.00 0.00 0.00 38 1010.3
20260503183356 52 16 13.0 17.0 0.00 0.00 0.00 42 1010.4
20260503182853 52 68 5.0 19.0 0.00 0.00 0.00 39 1010.4
20260503182351 54 96 8.0 15.0 0.00 0.00 0.00 38 1010.3
20260503181848 54 52 2.0 6.0 0.00 0.00 0.00 45 1010.2
20260503181345 52 200 5.0 10.0 0.00 0.00 0.00 43 1010.4
20260503180842 53 117 3.0 12.0 0.00 0.00 0.00 40 1010.0
20260503180340 54 44 4.0 14.0 0.00 0.00 0.00 37 1010.3
20260503175836 54 2 2.0 11.0 0.00 0.00 0.00 40 1010.1
20260503175334 54 44 3.0 19.0 0.00 0.00 0.00 39 1010.1
20260503174829 53 157 3.0 9.0 0.00 0.00 0.00 41 1010.0
20260503174327 53 89 9.0 18.0 0.00 0.00 0.00 40 1010.4
20260503173823 52 296 2.0 7.0 0.00 0.00 0.00 47 1010.1
20260503173319 52 33 4.0 10.0 0.00 0.00 0.00 40 1010.2
20260503172816 51 15 10.0 15.0 0.00 0.00 0.00 40 1010.2
20260503172314 52 276 2.0 17.0 0.00 0.00 0.00 41 1010.3
20260503171809 51 14 5.0 12.0 0.00 0.00 0.00 41 1010.5
20260503171306 50 11 4.0 15.0 0.00 0.00 0.00 43 1010.5
20260503170804 50 127 3.0 10.0 0.00 0.00 0.00 49 1010.6
20260503170300 51 348 5.0 12.0 0.00 0.00 0.00 46 1010.3
20260503150652 53 57 4.0 16.0 0.00 0.00 0.00 53 1010.1
20260503150148 53 72 3.0 14.0 0.00 0.00 0.00 53 1010.3
20260503140113 50 116 4.0 10.0 0.00 0.00 0.00 58 1010.5
20260503131042 46 15 3.0 7.0 0.00 0.00 0.00 67 1010.8
20260503130539 45 206 2.0 9.0 0.00 0.00 0.00 69 1010.8
20260503110424 40 101 2.0 8.0 0.00 0.00 0.00 75 1010.7
20260503090310 39 59 2.0 13.0 0.00 0.00 0.00 74 1010.8
20260503081237 40 213 0.0 3.0 0.00 0.00 0.00 73 1011.0
20260503080732 40 228 1.0 3.0 0.00 0.00 0.00 72 1010.9
20260503080230 41 119 0.0 4.0 0.00 0.00 0.00 71 1011.2
20260503072707 41 302 1.0 3.0 0.00 0.00 0.00 69 1011.4
20260503072203 41 264 0.0 4.0 0.00 0.00 0.00 68 1011.7
20260503071700 42 319 1.0 3.0 0.00 0.00 0.00 68 1011.5
20260503071157 42 56 1.0 3.0 0.00 0.00 0.00 67 1011.4
20260503070654 42 13 2.0 5.0 0.00 0.00 0.00 67 1011.6
20260503070152 42 50 3.0 4.0 0.00 0.00 0.00 66 1011.6
20260503060116 42 76 0.0 2.0 0.00 0.00 0.00 71 1012.2
20260503055108 42 217 1.0 3.0 0.00 0.00 0.00 69 1012.4
20260503054603 43 181 2.0 3.0 0.00 0.00 0.00 68 1012.2
20260503054100 43 140 2.0 3.0 0.00 0.00 0.00 64 1012.3
20260503053558 43 149 0.0 2.0 0.00 0.00 0.00 62 1012.4
20260503053056 43 166 3.0 4.0 0.00 0.00 0.00 63 1012.4
20260503052553 43 140 1.0 3.0 0.00 0.00 0.00 66 1012.5
20260503052049 43 185 2.0 3.0 0.00 0.00 0.00 68 1012.6
20260503051544 43 355 1.0 4.0 0.00 0.00 0.00 67 1012.4
20260503051042 42 26 0.0 2.0 0.00 0.00 0.00 73 1012.6
20260503050538 42 152 2.0 3.0 0.00 0.00 0.00 71 1012.6
20260503050036 43 107 1.0 3.0 0.00 0.00 0.00 70 1012.6
20260503045533 43 218 2.0 3.0 0.00 0.00 0.00 70 1012.8
20260503045030 43 136 1.0 2.0 0.00 0.00 0.00 69 1012.7
20260503044526 43 247 0.0 1.0 0.00 0.00 0.00 66 1012.6
20260503044024 44 169 1.0 2.0 0.00 0.00 0.00 65 1012.6
20260503043520 44 250 0.0 2.0 0.00 0.00 0.00 65 1012.8
20260503043017 44 173 0.0 2.0 0.00 0.00 0.00 64 1012.8
20260503042514 44 182 1.0 2.0 0.00 0.00 0.00 66 1012.8
20260503042010 45 154 2.0 3.0 0.00 0.00 0.00 67 1013.0
20260503041507 46 127 0.0 5.0 0.00 0.00 0.00 60 1012.8
20260503041005 46 160 0.0 4.0 0.00 0.00 0.00 59 1012.6
20260503040502 46 149 1.0 7.0 0.00 0.00 0.00 58 1012.7
20260503035959 46 134 3.0 5.0 0.00 0.18 0.18 58 1012.8
20260503035456 46 206 3.0 4.0 0.00 0.18 0.18 59 1012.6
20260503034954 47 60 3.0 12.0 0.00 0.18 0.18 57 1012.8
20260503034450 46 118 2.0 7.0 0.00 0.18 0.18 57 1012.8
20260503033947 46 61 2.0 7.0 0.00 0.18 0.18 58 1012.6
20260503033444 47 138 0.0 3.0 0.00 0.18 0.18 59 1012.8
20260503032942 47 134 1.0 13.0 0.00 0.18 0.18 57 1012.6
20260503032440 46 110 0.0 4.0 0.00 0.18 0.18 57 1012.7
20260503031937 46 230 0.0 2.0 0.00 0.18 0.18 60 1012.9
20260503031435 47 178 0.0 3.0 0.00 0.18 0.18 59 1012.8
20260503030932 46 49 2.0 5.0 0.00 0.18 0.18 59 1012.9
20260503030429 47 167 3.0 11.0 0.00 0.18 0.18 57 1012.8
20260503025926 46 20 2.0 4.0 0.00 0.18 0.18 59 1013.0
20260503025422 46 207 1.0 3.0 0.00 0.18 0.18 62 1012.9
20260503024920 46 7 2.0 4.0 0.00 0.18 0.18 61 1013.1
20260503024417 47 56 2.0 3.0 0.00 0.18 0.18 56 1012.9
20260503023914 47 113 3.0 9.0 0.00 0.18 0.18 55 1013.0
20260503023410 47 94 2.0 6.0 0.00 0.18 0.18 57 1013.0
20260503022907 47 39 0.0 5.0 0.00 0.18 0.18 60 1012.9
20260503022402 48 121 1.0 2.0 0.00 0.18 0.18 58 1013.0
20260503021858 48 171 3.0 3.0 0.00 0.18 0.18 57 1013.3
20260503021355 48 64 5.0 6.0 0.00 0.18 0.18 56 1013.0
20260503020852 48 54 0.0 5.0 0.00 0.18 0.18 57 1012.9
20260503020350 48 88 2.0 6.0 0.00 0.18 0.18 55 1012.9
20260503015846 48 98 1.0 5.0 0.00 0.18 0.18 56 1012.9
20260503015343 48 101 3.0 4.0 0.00 0.18 0.18 55 1012.9
20260503014839 49 72 1.0 10.0 0.00 0.18 0.18 54 1012.6
20260503014337 48 174 0.0 2.0 0.00 0.18 0.18 56 1012.8
20260503013834 48 147 4.0 5.0 0.00 0.18 0.18 54 1012.9
20260503013331 49 100 0.0 4.0 0.00 0.18 0.18 54 1012.7
20260503012828 48 116 3.0 5.0 0.00 0.18 0.18 56 1012.9
20260503012326 48 174 2.0 5.0 0.00 0.18 0.18 55 1012.8
20260503011822 48 160 0.0 2.0 0.00 0.18 0.18 56 1012.8
20260503011319 48 92 1.0 3.0 0.00 0.18 0.18 59 1012.8
20260503010816 49 182 1.0 2.0 0.00 0.18 0.18 55 1012.8
20260503010313 49 135 2.0 3.0 0.00 0.18 0.18 53 1012.7
20260503005810 50 229 0.0 1.0 0.00 0.18 0.18 53 1012.7
20260503005307 50 155 2.0 6.0 0.00 0.18 0.18 51 1012.5
20260503004803 50 194 2.0 3.0 0.00 0.18 0.18 51 1012.6
20260503004301 51 69 0.0 3.0 0.00 0.18 0.18 51 1012.7
20260503003758 51 95 2.0 7.0 0.00 0.18 0.18 51 1012.5
20260503003255 51 175 2.0 5.0 0.00 0.18 0.18 50 1012.5
20260503002752 51 84 0.0 6.0 0.00 0.18 0.18 53 1012.4